SBIRS GEO-4 (USA 273)

Last updated on Sun Jun 21 2026 00:03:07 GMT+0000 (Coordinated Universal Time)

1 41937U 17004A 26171.25353019 .00000118 00000+0 00000+0 0 9999 2 41937 2.2498 43.3808 0002075 36.5270 300.7222 1.00272087 34622
UTC large
Height (km)
Speed (km/s)
/
Latitude / Longitude
Inclination (degrees)
Orbital Period (minutes)
Azimuth
Elevation
Range (km)
Doppler Factor

Next 0 passes for location: London (51.5072 / 0.1276)

No passes found over London.
SBIRS GEO-4 (USA 273)